"2009-04-24 00:00:00",826884,7.646,219.2,1.164,0.227,17.74,108.4584,20.94,21.9,12.31,0,110.9,13.17,21.76,181.2
"2009-04-24 00:00:30",826885,7.077,220.1,1.224,0.103,17.71,108.453,20.92,21.9,12.31,0,110.9,13.17,21.75,182.1
"2009-04-24 00:01:00",826886,7.414,220.3,2.45,0.287,17.69,108.4457,20.9,21.88,12.29,0,110.9,13.17,21.73,182.3
"2009-04-24 00:01:30",826887,7.738,224.7,1.291,0.107,17.71,108.4359,20.88,21.88,12.3,0,110.9,13.17,21.70,186.7
"2009-04-24 00:02:00",826888,8.05,223.2,1.567,0.163,17.7,108.4309,20.87,21.87,12.35,0,110.9,13.17,21.69,185.2
"2009-04-24 00:02:30",826889,7.946,222.5,3.991,0.367,17.71,108.4269,20.86,21.85,12.41,0,110.9,13.16,21.68,184.5
"2009-04-24 00:03:00",826890,8.2,223,2.011,0.225,17.74,108.4252,20.85,21.84,12.45,0,110.9,13.16,21.68,185.0
"2009-04-24 00:03:30",826891,7.984,223.6,2.85,0.287,17.73,108.4283,20.86,21.84,12.44,0,110.9,13.16,21.68,185.6
"2009-04-24 00:04:00",826892,7.909,225.1,3.625,0.327,17.8,108.4265,20.85,21.84,12.52,0,110.9,13.16,21.68,187.1
"2009-04-24 00:04:30",826893,7.964,228.4,2.246,0.501,17.71,108.4252,20.85,21.83,12.67,0,110.9,13.16,21.68,190.4
"2009-04-24 00:05:00",826894,7.825,226.5,1.31,0.261,17.72,108.4263,20.85,21.83,12.49,0,110.9,13.16,21.68,188.5
"2009-04-24 00:05:30",826895,7.49,222.3,2.555,0.218,17.7,108.4297,20.86,21.84,12.46,0,110.9,13.16,21.69,184.3
"2009-04-24 00:06:00",826896,7.872,227.2,3.167,0.416,17.73,108.4348,20.88,21.84,12.54,0,110.9,13.17,21.70,189.2
"2009-04-24 00:06:30",826897,7.584,230.1,2.902,0.319,17.72,108.437,20.88,21.85,12.54,0,110.9,13.17,21.71,192.1
"2009-04-24 00:07:00",826898,7.772,225.5,1.855,0.2,17.68,108.4409,20.89,21.84,12.5,0,110.9,13.17,21.72,187.5
"2009-04-24 00:07:30",826899,8.37,228.5,2.17,0.266,17.69,108.4482,20.91,21.84,12.62,0,110.9,13.17,21.73,190.5
"2009-04-24 00:08:00",826900,8.48,223.7,2.943,0.333,17.71,108.4522,20.92,21.85,12.79,0,110.9,13.17,21.74,185.7
"2009-04-24 00:08:30",826901,9.55,224.8,1.61,0.352,17.76,108.456,20.93,21.84,12.67,0,110.9,13.17,21.75,186.8
"2009-04-24 00:09:00",826902,9.34,228.2,1.169,0.081,17.75,108.4557,20.93,21.85,12.73,0,110.9,13.17,21.75,190.2
"2009-04-24 00:09:30",826903,9.11,230.4,1.421,0.205,17.78,108.4554,20.93,21.86,12.8,0,110.9,13.17,21.75,192.4
"2009-04-24 00:10:00",826904,8.24,224,6.978,0.243,17.76,108.4557,20.93,21.84,12.76,0,110.9,13.17,21.75,186.0
"2009-04-24 00:10:30",826905,9.29,218.3,1.167,0.312,17.77,108.4548,20.93,21.85,12.57,0,110.9,13.17,21.75,180.3
"2009-04-24 00:11:00",826906,9.11,220.8,1.94,0.306,17.76,108.4557,20.93,21.84,12.5,0,110.9,13.17,21.75,182.8
"2009-04-24 00:11:30",826907,8.84,222.7,1.925,0.267,17.79,108.4548,20.93,21.86,12.5,0,110.9,13.17,21.75,184.7
"2009-04-24 00:12:00",826908,8.09,225.6,1.766,0.282,17.78,108.4548,20.93,21.86,12.49,0,110.9,13.17,21.75,187.6
"2009-04-24 00:12:30",826909,7.927,225.1,1.761,0.146,17.75,108.4554,20.93,21.85,12.49,0,110.9,13.17,21.75,187.1
"2009-04-24 00:13:00",826910,7.578,221.8,1.945,0.345,17.74,108.4551,20.93,21.84,12.46,0,110.9,13.17,21.75,183.8
"2009-04-24 00:13:30",826911,7.616,223.8,1.412,0.216,17.73,108.454,20.92,21.84,12.57,0,110.9,13.17,21.75,185.8
"2009-04-24 00:14:00",826912,7.625,223.8,2.844,0.23,17.73,108.4542,20.93,21.83,12.57,0,110.9,13.17,21.75,185.8
"2009-04-24 00:14:30",826913,7.134,221.6,2.131,0.447,17.73,108.4545,20.93,21.84,12.57,0,110.9,13.17,21.75,183.6
"2009-04-24 00:15:00",826914,8.07,222,2.189,0.561,17.73,108.4548,20.93,21.85,12.6,0,110.9,13.17,21.75,184.0
"2009-04-24 00:15:30",826915,8.61,218.3,1.876,0.442,17.76,108.4551,20.93,21.86,12.61,0,110.9,13.17,21.75,180.3
"2009-04-24 00:16:00",826916,8.13,218.4,2.801,0.513,17.74,108.4551,20.93,21.87,12.66,0,110.9,13.17,21.75,180.4
"2009-04-24 00:16:30",826917,8.44,214.6,2.598,0.391,17.75,108.456,20.93,21.86,12.69,0,110.9,13.17,21.75,176.6
"2009-04-24 00:17:00",826918,7.631,215.4,3.364,0.31,17.75,108.4541,20.92,21.86,12.69,0,110.9,13.17,21.75,177.4
"2009-04-24 00:17:30",826919,7.386,213.1,2.295,0.391,17.8,108.4554,20.93,21.86,12.95,0,110.9,13.17,21.75,175.1
"2009-04-24 00:18:00",826920,7.723,216.2,2.038,0.217,17.73,108.4557,20.93,21.85,12.96,0,110.9,13.16,21.75,178.2
"2009-04-24 00:18:30",826921,8.19,214.5,2.897,0.447,17.74,108.4551,20.93,21.86,12.81,0,110.9,13.16,21.75,176.5
"2009-04-24 00:19:00",826922,8.15,215.4,1.129,0.237,17.76,108.456,20.93,21.84,12.74,0,110.9,13.16,21.75,177.4
"2009-04-24 00:19:30",826923,8.12,212.9,2.178,0.16,17.73,108.4548,20.93,21.86,12.71,0,110.9,13.16,21.75,174.9
"2009-04-24 00:20:00",826924,8.92,214.3,1.94,0.494,17.76,108.456,20.93,21.87,12.76,0,111,13.16,21.75,176.3
"2009-04-24 00:20:30",826925,8.55,215.2,3.619,0.273,17.81,108.4551,20.93,21.87,12.82,0,110.9,13.17,21.75,177.2
"2009-04-24 00:21:00",826926,7.784,219.8,1.992,0.479,17.77,108.456,20.93,21.86,12.95,0,110.9,13.16,21.75,181.8
"2009-04-24 00:21:30",826927,7.776,216.6,1.899,0.181,17.8,108.4551,20.93,21.86,13.01,0,110.9,13.17,21.75,178.6
"2009-04-24 00:22:00",826928,7.656,217.3,2.735,0.296,17.79,108.4529,20.92,21.88,13.02,0,110.9,13.17,21.75,179.3
"2009-04-24 00:22:30",826929,8.24,214.5,1.871,0.173,17.73,108.4538,20.92,21.87,12.99,0,111,13.16,21.75,176.5
"2009-04-24 00:23:00",826930,8.2,214.1,0.977,0.133,17.7,108.4541,20.92,21.88,12.78,0,110.9,13.16,21.75,176.1
"2009-04-24 00:23:30",826931,8.16,214.3,1.716,0.261,17.71,108.4557,20.93,21.87,12.66,0,110.9,13.16,21.75,176.3
"2009-04-24 00:24:00",826932,8.08,214,2.472,0.315,17.68,108.4548,20.93,21.87,12.66,0,110.9,13.16,21.75,176.0
"2009-04-24 00:24:30",826933,7.98,214.6,1.34,0.27,17.72,108.4548,20.93,21.86,12.65,0,110.9,13.17,21.75,176.6
"2009-04-24 00:25:00",826934,8.11,211.5,1.599,0.183,17.72,108.4551,20.93,21.86,12.62,0,110.9,13.17,21.75,173.5
"2009-04-24 00:25:30",826935,8.06,211.6,1.764,0.199,17.7,108.4551,20.93,21.86,12.68,0,111,13.17,21.75,173.6
"2009-04-24 00:26:00",826936,8.28,210.5,1.681,0.166,17.71,108.4545,20.93,21.85,12.72,0,110.9,13.17,21.75,172.5
"2009-04-24 00:26:30",826937,8.44,208.4,2.02,0.18,17.7,108.4529,20.92,21.86,12.95,0,110.9,13.17,21.75,170.4
"2009-04-24 00:27:00",826938,8.06,206.2,1.749,0.5,17.68,108.4501,20.91,21.85,13.2,0,110.9,13.17,21.74,168.2
"2009-04-24 00:27:30",826939,8.57,203.8,2.069,0.194,17.66,108.4506,20.92,21.85,13.24,0,110.9,13.17,21.74,165.8
"2009-04-24 00:28:00",826940,8.4,205.5,2.174,0.189,17.67,108.4517,20.92,21.85,13.39,0,110.9,13.17,21.74,167.5
"2009-04-24 00:28:30",826941,8.1,208.3,1.915,0.443,17.61,108.4512,20.92,21.85,13.53,0,110.9,13.17,21.74,170.3
"2009-04-24 00:29:00",826942,8.9,207.9,1.1,0.451,17.59,108.4481,20.91,21.86,13.52,0,110.9,13.17,21.73,169.9
"2009-04-24 00:29:30",826943,9.08,207.9,1.816,0.288,17.55,108.445,20.9,21.85,13.42,0,110.9,13.17,21.73,169.9
"2009-04-24 00:30:00",826944,9.19,207.4,2.23,0.233,17.57,108.4397,20.89,21.86,13.44,0,110.9,13.17,21.71,169.4
"2009-04-24 00:30:30",826945,9.28,208.1,1.299,0.3,17.51,108.4299,20.86,21.84,13.5,0,110.9,13.17,21.69,170.1
"2009-04-24 00:31:00",826946,9.22,209,1.525,0.349,17.56,108.4251,20.85,21.85,13.34,0,110.9,13.17,21.68,171.0
"2009-04-24 00:31:30",826947,8.9,208.2,2.125,0.206,17.5,108.4226,20.84,21.84,13.29,0,110.9,13.17,21.67,170.2
"2009-04-24 00:32:00",826948,8.74,207.6,1.778,0.233,17.53,108.4238,20.85,21.82,13.28,0,110.9,13.17,21.67,169.6
"2009-04-24 00:32:30",826949,9.43,205.5,1.754,0.294,17.51,108.4232,20.85,21.83,13.25,0,110.9,13.17,21.67,167.5
"2009-04-24 00:33:00",826950,9.97,203.1,1.443,0.336,17.47,108.4229,20.84,21.81,13.4,0,110.9,13.17,21.67,165.1
"2009-04-24 00:33:30",826951,10.32,201.7,1.88,0.256,17.44,108.4244,20.85,21.8,13.62,0,110.9,13.17,21.67,163.7
"2009-04-24 00:34:00",826952,10.19,203.5,1.784,0.225,17.43,108.4226,20.84,21.81,13.76,0,110.9,13.17,21.67,165.5
"2009-04-24 00:34:30",826953,9.8,204.2,1.044,0.171,17.45,108.4164,20.83,21.79,13.72,0,110.9,13.17,21.65,166.2
"2009-04-24 00:35:00",826954,10.23,206.6,1.024,0.286,17.52,108.4025,20.79,21.8,13.69,0,110.9,13.17,21.62,168.6
"2009-04-24 00:35:30",826955,10.48,206.4,1.698,0.3,17.51,108.3945,20.77,21.79,13.55,0,110.9,13.16,21.60,168.4
"2009-04-24 00:36:00",826956,10.42,206.1,1.351,0.186,17.52,108.3949,20.77,21.78,13.52,0,110.9,13.16,21.60,168.1
"2009-04-24 00:36:30",826957,10.32,208.9,1.335,0.253,17.45,108.3968,20.78,21.76,13.49,0,110.9,13.16,21.60,170.9
"2009-04-24 00:37:00",826958,10.04,205.1,0.915,0.248,17.51,108.3971,20.78,21.75,13.42,0,110.9,13.16,21.60,167.1
"2009-04-24 00:37:30",826959,10.04,208.4,2.82,0.11,17.53,108.3915,20.76,21.75,13.25,0,110.9,13.16,21.59,170.4
"2009-04-24 00:38:00",826960,10.37,206.7,1.425,0.295,17.54,108.3724,20.72,21.73,13.04,0,110.9,13.16,21.54,168.7
"2009-04-24 00:38:30",826961,10.96,204.5,1.003,0.158,17.5,108.3643,20.69,21.71,13.15,0,110.9,13.16,21.52,166.5
"2009-04-24 00:39:00",826962,10.76,205.8,1.507,0.192,17.54,108.3643,20.69,21.7,13.33,0,110.9,13.16,21.52,167.8
"2009-04-24 00:39:30",826963,10.65,207,1.09,0.216,17.54,108.3643,20.69,21.68,13.41,0,110.9,13.16,21.52,169.0
"2009-04-24 00:40:00",826964,10.88,206.4,1.127,0.195,17.55,108.3612,20.69,21.68,13.48,0,110.9,13.16,21.51,168.4
"2009-04-24 00:40:30",826965,10.92,205.7,1.151,0.135,17.58,108.3426,20.64,21.65,13.48,0,110.9,13.17,21.46,167.7
"2009-04-24 00:41:00",826966,11.06,206.3,1.046,0.297,17.53,108.3305,20.61,21.63,13.57,0,110.9,13.17,21.43,168.3
"2009-04-24 00:41:30",826967,10.61,205.5,1.55,0.184,17.51,108.3305,20.61,21.63,13.51,0,110.9,13.17,21.43,167.5
"2009-04-24 00:42:00",826968,10.82,206.4,1.577,0.25,17.56,108.3283,20.6,21.6,13.65,0,110.9,13.18,21.43,168.4
"2009-04-24 00:42:30",826969,10.39,203.6,0.708,0.2,17.57,108.3151,20.57,21.58,13.53,0,110.9,13.18,21.39,165.6
"2009-04-24 00:43:00",826970,10.59,204.1,1.472,0.146,17.53,108.2974,20.52,21.57,13.58,0,110.9,13.18,21.35,166.1
"2009-04-24 00:43:30",826971,10.78,204.5,1.392,0.22,17.54,108.2968,20.52,21.55,13.84,0,110.9,13.18,21.34,166.5
"2009-04-24 00:44:00",826972,10.92,206.4,1.47,0.185,17.6,108.2957,20.52,21.53,13.95,0,110.9,13.18,21.34,168.4
"2009-04-24 00:44:30",826973,10.57,205.6,1.381,0.195,17.52,108.2808,20.48,21.53,14.2,0,110.9,13.18,21.30,167.6
"2009-04-24 00:45:00",826974,10.51,204.6,0.895,0.18,17.54,108.2636,20.44,21.49,14.04,0,110.9,13.18,21.26,166.6
"2009-04-24 00:45:30",826975,10.57,205.7,1.09,0.139,17.6,108.2631,20.43,21.47,13.88,0,110.9,13.18,21.26,167.7
"2009-04-24 00:46:00",826976,10.39,205.7,1.094,0.175,17.6,108.2631,20.43,21.46,14.09,0,110.9,13.18,21.26,167.7
"2009-04-24 00:46:30",826977,9.93,205.3,0.671,0.125,17.53,108.2597,20.43,21.44,14.12,0,110.9,13.18,21.25,167.3
"2009-04-24 00:47:00",826978,9.87,206.7,0.927,0.23,17.56,108.2378,20.37,21.43,14.21,0,110.9,13.18,21.19,168.7
"2009-04-24 00:47:30",826979,9.97,206.6,1.177,0.229,17.66,108.2293,20.35,21.4,14.01,0,110.9,13.18,21.17,168.6
"2009-04-24 00:48:00",826980,9.91,206.7,0.691,0.189,17.63,108.2293,20.35,21.39,13.86,0,110.9,13.18,21.17,168.7
"2009-04-24 00:48:30",826981,9.37,205,3.364,0.237,17.63,108.2293,20.35,21.39,14.1,0,110.9,13.18,21.17,167.0
"2009-04-24 00:49:00",826982,8.51,199.8,1.75,0.14,17.61,108.2288,20.35,21.36,14.19,0,110.9,13.18,21.17,161.8
"2009-04-24 00:49:30",826983,8.74,199.6,1.497,0.2,17.58,108.2226,20.33,21.35,14.35,0,110.9,13.18,21.15,161.6
"2009-04-24 00:50:00",826984,8.88,201.6,0.734,0.357,17.56,108.2071,20.29,21.33,14.57,0,110.9,13.18,21.11,163.6
"2009-04-24 00:50:30",826985,9.4,202.7,1.653,0.22,17.64,108.2012,20.28,21.32,14.63,0,110.9,13.18,21.10,164.7
"2009-04-24 00:51:00",826986,9.67,202.6,1.844,0.325,17.64,108.1956,20.26,21.31,14.61,0,110.9,13.18,21.08,164.6
"2009-04-24 00:51:30",826987,9.98,201.7,0.917,0.238,17.67,108.1956,20.26,21.32,14.71,0,110.9,13.18,21.08,163.7
"2009-04-24 00:52:00",826988,9.9,201.8,2.142,0.256,17.66,108.1956,20.26,21.3,14.61,0,110.9,13.18,21.08,163.8
"2009-04-24 00:52:30",826989,9.76,203.9,1.277,0.228,17.62,108.1956,20.26,21.29,14.54,0,110.9,13.18,21.08,165.9
"2009-04-24 00:53:00",826990,10.26,205.2,1.486,0.221,17.68,108.1959,20.26,21.28,14.57,0,110.9,13.18,21.08,167.2
"2009-04-24 00:53:30",826991,10.2,203.3,1.198,0.239,17.78,108.1956,20.26,21.29,14.52,0,110.9,13.18,21.08,165.3
"2009-04-24 00:54:00",826992,9.99,203.3,2.438,0.287,17.73,108.1922,20.25,21.26,14.31,0,110.9,13.18,21.08,165.3
"2009-04-24 00:54:30",826993,9.33,203.6,1.284,0.267,17.67,108.1869,20.24,21.28,14.61,0,110.9,13.18,21.06,165.6
"2009-04-24 00:55:00",826994,9.73,203.3,1.713,0.217,17.68,108.1819,20.23,21.26,14.96,0,110.9,13.18,21.05,165.3
"2009-04-24 00:55:30",826995,9.12,201.3,1.376,0.18,17.75,108.1704,20.2,21.26,14.87,0,110.9,13.18,21.02,163.3
"2009-04-24 00:56:00",826996,9.13,199.8,1.469,0.3,17.74,108.1649,20.18,21.26,14.64,0,110.9,13.18,21.01,161.8
"2009-04-24 00:56:30",826997,9.09,200,1.748,0.27,17.68,108.1661,20.19,21.24,14.56,0,110.9,13.18,21.01,162.0
"2009-04-24 00:57:00",826998,8.75,203.8,3.245,0.322,17.76,108.1683,20.19,21.23,14.47,0,110.9,13.18,21.01,165.8
"2009-04-24 00:57:30",826999,7.567,209.2,2.959,0.692,17.87,108.1701,20.2,21.21,14.22,0,110.9,13.18,21.02,171.2
"2009-04-24 00:58:00",827000,8.57,202.4,2.259,0.573,17.64,108.175,20.21,21.23,14.16,0,110.9,13.18,21.03,164.4
"2009-04-24 00:58:30",827001,8.84,206.3,1.327,0.196,17.63,108.1768,20.21,21.22,14.87,0,110.9,13.18,21.04,168.3
"2009-04-24 00:59:00",827002,8.71,207.8,1.502,0.187,17.63,108.1775,20.22,21.2,15.23,0,110.9,13.18,21.04,169.8
"2009-04-24 00:59:30",827003,8.31,203.3,1.295,0.174,17.63,108.1764,20.21,21.2,15.28,0,110.9,13.18,21.03,165.3
"2009-04-24 01:00:00",827004,8.4,203.6,2.85,0.381,17.66,108.1722,20.2,21.18,15.22,0,110.9,13.19,21.02,165.6
"2009-04-24 01:00:30",827005,8.88,204.5,2.548,0.254,17.7,108.1632,20.18,21.2,14.98,0,110.9,13.19,21.00,166.5
"2009-04-24 01:01:00",827006,8.74,205.9,1.592,0.299,17.71,108.1571,20.16,21.17,14.6,0,110.9,13.19,20.99,167.9
"2009-04-24 01:01:30",827007,8.9,204.2,1.576,0.202,17.78,108.154,20.15,21.18,14.47,0,110.9,13.19,20.98,166.2
"2009-04-24 01:02:00",827008,8.93,206.5,3.416,0.269,17.97,108.1561,20.16,21.17,14.19,0,110.9,13.19,20.98,168.5
"2009-04-24 01:02:30",827009,9.31,206.6,1.448,0.204,17.8,108.158,20.16,21.18,13.85,0,110.9,13.19,20.99,168.6
"2009-04-24 01:03:00",827010,9.16,205.5,1.145,0.119,17.8,108.1582,20.17,21.16,13.72,0,110.9,13.19,20.99,167.5
"2009-04-24 01:03:30",827011,8.82,200.8,1.879,0.095,17.78,108.1598,20.17,21.16,13.87,0,110.9,13.19,20.99,162.8
"2009-04-24 01:04:00",827012,8.93,202,0.968,0.181,17.88,108.1628,20.18,21.15,13.93,0,110.9,13.19,21.00,164.0
"2009-04-24 01:04:30",827013,9.06,203.4,1.201,0.249,18.02,108.1582,20.17,21.13,13.6,0,110.9,13.19,20.99,165.4
"2009-04-24 01:05:00",827014,9.15,204.1,1.401,0.339,18.02,108.1444,20.13,21.14,13.63,0,110.9,13.19,20.95,166.1
"2009-04-24 01:05:30",827015,9.48,204.7,1.296,0.197,18.12,108.1368,20.11,21.12,13.44,0,110.9,13.19,20.93,166.7
"2009-04-24 01:06:00",827016,9.05,204.5,0.808,0.128,18,108.1309,20.1,21.12,13.48,0,110.9,13.19,20.92,166.5
"2009-04-24 01:06:30",827017,9.07,205.4,0.97,0.096,18.01,108.1309,20.1,21.1,13.55,0,110.9,13.19,20.92,167.4
"2009-04-24 01:07:00",827018,9.15,205.7,1.8,0.191,18.02,108.1309,20.1,21.09,13.68,0,110.9,13.19,20.92,167.7
"2009-04-24 01:07:30",827019,9.38,206.7,0.743,0.095,18.12,108.1284,20.09,21.09,13.58,0,110.9,13.19,20.91,168.7
"2009-04-24 01:08:00",827020,9.32,206.7,0.865,0.155,18.09,108.1191,20.07,21.07,13.5,0,110.9,13.19,20.89,168.7
"2009-04-24 01:08:30",827021,9.56,208.5,1.729,0.178,18.18,108.0997,20.02,21.05,13.48,0,110.9,13.19,20.84,170.5
"2009-04-24 01:09:00",827022,9.47,209,1.1,0.164,18.15,108.0972,20.01,21.05,13.44,0,110.9,13.2,20.83,171.0
"2009-04-24 01:09:30",827023,9.23,208.7,1.692,0.238,18.01,108.0972,20.01,21.04,13.38,0,110.9,13.19,20.83,170.7
"2009-04-24 01:10:00",827024,9.18,210.5,2.05,0.237,17.97,108.0952,20,21.02,13.45,0,110.9,13.19,20.83,172.5
"2009-04-24 01:10:30",827025,8.77,210.4,1.185,0.222,18.01,108.0884,19.99,21.01,13.29,0,110.9,13.19,20.81,172.4
"2009-04-24 01:11:00",827026,8.73,209.2,1.552,0.16,17.97,108.0764,19.96,20.99,13.33,0,110.9,13.19,20.78,171.2
"2009-04-24 01:11:30",827027,8.84,206.5,0.759,0.237,18.03,108.0646,19.93,20.98,13.43,0,110.9,13.19,20.75,168.5
"2009-04-24 01:12:00",827028,8.7,210,3.561,0.514,18.05,108.0634,19.92,20.97,13.3,0,110.9,13.19,20.74,172.0
"2009-04-24 01:12:30",827029,8.41,209.9,2.304,0.285,17.99,108.0634,19.92,20.95,13.33,0,110.8,13.19,20.74,171.9
"2009-04-24 01:13:00",827030,8.01,208.9,1.101,0.166,17.91,108.0634,19.92,20.96,13.35,0,110.8,13.19,20.74,170.9
"2009-04-24 01:13:30",827031,7.427,203.4,1.579,0.364,17.8,108.0626,19.92,20.94,13.61,0,110.8,13.19,20.74,165.4
"2009-04-24 01:14:00",827032,7.675,204.2,1.252,0.22,17.73,108.0601,19.91,20.93,13.91,0,110.8,13.19,20.74,166.2
"2009-04-24 01:14:30",827033,7.783,207.2,1.133,0.143,17.71,108.0561,19.9,20.93,14.07,0,110.8,13.2,20.73,169.2
"2009-04-24 01:15:00",827034,7.664,208.9,1.232,0.118,17.8,108.056,19.9,20.93,14.12,0,110.8,13.2,20.72,170.9
"2009-04-24 01:15:30",827035,7.937,208,1.289,0.439,17.79,108.0566,19.9,20.92,14.06,0,110.8,13.2,20.73,170.0
"2009-04-24 01:16:00",827036,8.26,208.1,1.708,0.171,17.78,108.0549,19.9,20.92,14.12,0,110.8,13.2,20.72,170.1
"2009-04-24 01:16:30",827037,8.21,207.8,1.725,0.176,17.78,108.0465,19.88,20.91,14.12,0,110.8,13.2,20.70,169.8
"2009-04-24 01:17:00",827038,8.81,208.2,2.118,0.234,17.84,108.0471,19.88,20.9,14.05,0,110.8,13.2,20.70,170.2
"2009-04-24 01:17:30",827039,8.67,215.2,1.088,0.213,17.82,108.0467,19.88,20.92,13.99,0,110.8,13.2,20.70,177.2
"2009-04-24 01:18:00",827040,8.5,213.4,1.142,0.143,17.95,108.0403,19.86,20.91,13.86,0,110.8,13.2,20.68,175.4
"2009-04-24 01:18:30",827041,8.16,212.8,1.066,0.306,17.91,108.0421,19.87,20.91,13.92,0,110.8,13.2,20.69,174.8
"2009-04-24 01:19:00",827042,7.872,211.7,1.212,0.13,17.84,108.0406,19.86,20.91,14.07,0,110.8,13.2,20.69,173.7
"2009-04-24 01:19:30",827043,7.544,211,1.526,0.201,17.88,108.0406,19.86,20.9,14.02,0,110.8,13.2,20.69,173.0
"2009-04-24 01:20:00",827044,7.987,212.2,1.19,0.099,17.88,108.0412,19.87,20.91,14.02,0,110.8,13.2,20.69,174.2
"2009-04-24 01:20:30",827045,7.984,211.4,1.162,0.166,17.82,108.0431,19.87,20.9,14,0,110.8,13.2,20.69,173.4
"2009-04-24 01:21:00",827046,7.966,212.3,1.434,0.253,17.8,108.0449,19.87,20.9,14.05,0,110.8,13.2,20.70,174.3
"2009-04-24 01:21:30",827047,8.06,218.3,2.632,0.179,18.09,108.0461,19.88,20.89,13.72,0,110.8,13.2,20.70,180.3
"2009-04-24 01:22:00",827048,8.09,216.6,2.274,0.272,18.02,108.0482,19.88,20.89,13.49,0,110.8,13.2,20.70,178.6
"2009-04-24 01:22:30",827049,7.855,218.9,1.692,0.279,18.04,108.0561,19.9,20.89,13.46,0,110.8,13.2,20.73,180.9
"2009-04-24 01:23:00",827050,7.854,223.3,5.064,0.348,18.07,108.0582,19.91,20.88,13.48,0,110.8,13.2,20.73,185.3
"2009-04-24 01:23:30",827051,7.499,223.3,1.755,0.26,18.15,108.0601,19.91,20.89,13.42,0,110.8,13.2,20.74,185.3
"2009-04-24 01:24:00",827052,7.459,220.9,2.199,0.19,18.08,108.0643,19.92,20.9,13.39,0,110.8,13.2,20.75,182.9
"2009-04-24 01:24:30",827053,7.902,220,1.708,0.444,18.23,108.0649,19.93,20.9,13.34,0,110.8,13.2,20.75,182.0
"2009-04-24 01:25:00",827054,7.683,222.4,3.472,0.354,18.21,108.0658,19.93,20.9,13.25,0,110.8,13.2,20.75,184.4
"2009-04-24 01:25:30",827055,8.16,232.5,5.777,0.478,18.24,108.0655,19.93,20.89,13.36,0,110.8,13.21,20.75,194.5
"2009-04-24 01:26:00",827056,7.648,228.9,2.618,0.338,18.31,108.0661,19.93,20.9,13.41,0,110.8,13.21,20.75,190.9
"2009-04-24 01:26:30",827057,7.42,226.2,4.272,0.377,18.23,108.0661,19.93,20.9,13.37,0,110.8,13.2,20.75,188.2
"2009-04-24 01:27:00",827058,6.903,224.9,3.278,0.307,18.24,108.0661,19.93,20.89,13.45,0,110.8,13.2,20.75,186.9
"2009-04-24 01:27:30",827059,6.778,217.2,4.443,0.455,18.08,108.0661,19.93,20.91,13.52,0,110.8,13.2,20.75,179.2
"2009-04-24 01:28:00",827060,7.26,218.3,2.631,0.207,18.18,108.0661,19.93,20.89,13.79,0,110.8,13.2,20.75,180.3
"2009-04-24 01:28:30",827061,6.926,225.3,1.597,0.175,18.32,108.0661,19.93,20.89,13.6,0,110.8,13.2,20.75,187.3
"2009-04-24 01:29:00",827062,6.976,224.4,1.594,0.125,18.25,108.0661,19.93,20.9,13.62,0,110.8,13.2,20.75,186.4
"2009-04-24 01:29:30",827063,6.83,229.5,2.281,0.185,18.34,108.0661,19.93,20.89,13.61,0,110.8,13.2,20.75,191.5
"2009-04-24 01:30:00",827064,6.308,228.5,4.23,0.327,18.35,108.0625,19.92,20.89,13.4,0,110.8,13.2,20.74,190.5
"2009-04-24 01:30:30",827065,6.041,216.4,3.065,0.165,18.07,108.0541,19.9,20.87,13.71,0,110.8,13.2,20.72,178.4
"2009-04-24 01:31:00",827066,6.604,217.8,2.143,0.331,18.06,108.0481,19.88,20.87,14.09,0,110.8,13.2,20.70,179.8
"2009-04-24 01:31:30",827067,7.926,224.3,1.387,0.343,18.46,108.0408,19.86,20.87,13.86,0,110.8,13.2,20.69,186.3
"2009-04-24 01:32:00",827068,8.17,226.2,1.127,0.164,18.5,108.0327,19.84,20.86,13.3,0,110.8,13.21,20.66,188.2
"2009-04-24 01:32:30",827069,8.36,226.1,0.504,0.109,18.57,108.0324,19.84,20.86,13.15,0,110.8,13.21,20.66,188.1
"2009-04-24 01:33:00",827070,8.37,226.5,1.51,0.09,18.48,108.0324,19.84,20.85,13.13,0,110.8,13.21,20.66,188.5
"2009-04-24 01:33:30",827071,8.21,228.9,0.835,0.23,18.59,108.0315,19.84,20.83,13.06,0,110.8,13.21,20.66,190.9
"2009-04-24 01:34:00",827072,8.36,228.1,0.641,0.095,18.46,108.0254,19.82,20.83,13.09,0,110.8,13.21,20.65,190.1
"2009-04-24 01:34:30",827073,8.05,230.2,1.672,0.229,18.5,108.0189,19.81,20.81,13.14,0,110.8,13.21,20.63,192.2
"2009-04-24 01:35:00",827074,7.653,232.2,0.948,0.134,18.46,108.0155,19.8,20.82,13.16,0,110.8,13.21,20.62,194.2
"2009-04-24 01:35:30",827075,8.18,227.1,0.998,0.236,18.32,108.0045,19.77,20.81,13.31,0,110.8,13.21,20.59,189.1
"2009-04-24 01:36:00",827076,8.4,228.1,0.621,0.112,18.29,108.0015,19.76,20.81,13.58,0,110.8,13.21,20.58,190.1
"2009-04-24 01:36:30",827077,8.33,232.1,0.69,0.158,18.36,108.0011,19.76,20.8,13.7,0,110.8,13.21,20.58,194.1
"2009-04-24 01:37:00",827078,8.07,230.7,0.939,0.193,18.3,108.0041,19.77,20.81,13.84,0,110.8,13.21,20.59,192.7
"2009-04-24 01:37:30",827079,7.858,231,1.072,0.316,18.31,108.0059,19.77,20.8,13.89,0,110.8,13.21,20.60,193.0
"2009-04-24 01:38:00",827080,8.06,231,0.818,0.167,18.38,108.0093,19.78,20.8,13.77,0,110.8,13.21,20.60,193.0
"2009-04-24 01:38:30",827081,8.09,232.1,2.095,0.205,18.49,108.0126,19.79,20.78,13.49,0,110.8,13.21,20.61,194.1
"2009-04-24 01:39:00",827082,8.1,231.3,1.293,0.143,18.45,108.0199,19.81,20.79,13.45,0,110.8,13.22,20.63,193.3
"2009-04-24 01:39:30",827083,7.639,235,1.526,0.298,18.53,108.0242,19.82,20.77,13.46,0,110.8,13.22,20.64,197.0
"2009-04-24 01:40:00",827084,7.53,237.3,2.103,0.196,18.62,108.0266,19.83,20.77,13.24,0,110.8,13.22,20.65,199.3
"2009-04-24 01:40:30",827085,7.957,234,2.592,0.39,18.38,108.0269,19.83,20.77,13.32,0,110.8,13.22,20.65,196.0
"2009-04-24 01:41:00",827086,7.612,230.6,2.083,0.167,18.34,108.0309,19.84,20.77,13.64,0,110.8,13.22,20.66,192.6
"2009-04-24 01:41:30",827087,7.355,241,4.878,0.302,18.48,108.033,19.84,20.77,13.72,0,110.8,13.22,20.67,203.0
"2009-04-24 01:42:00",827088,7.112,243.1,2.549,0.452,18.66,108.0334,19.85,20.76,13.38,0,110.8,13.22,20.67,205.1
"2009-04-24 01:42:30",827089,6.91,244,2.949,0.364,18.67,108.034,19.85,20.77,13.1,0,110.8,13.22,20.67,206.0
"2009-04-24 01:43:00",827090,7.052,252,2.664,0.37,18.68,108.0317,19.84,20.76,12.97,0,110.8,13.22,20.66,214.0
"2009-04-24 01:43:30",827091,6.669,248.2,1.871,0.415,18.65,108.0326,19.84,20.76,12.95,0,110.8,13.21,20.66,210.2
"2009-04-24 01:44:00",827092,6.051,249.4,4.591,0.297,18.62,108.0343,19.85,20.77,12.93,0,110.8,13.21,20.67,211.4
"2009-04-24 01:44:30",827093,6.181,252.1,5.915,0.238,18.64,108.0351,19.85,20.77,12.93,0,110.8,13.21,20.67,214.1
"2009-04-24 01:45:00",827094,6.87,232.9,5.602,0.459,18.62,108.0351,19.85,20.78,12.88,0,110.8,13.21,20.67,194.9
"2009-04-24 01:45:30",827095,7.147,232,3.693,0.222,18.65,108.0351,19.85,20.78,12.82,0,110.8,13.21,20.67,194.0
"2009-04-24 01:46:00",827096,7.456,240.1,5.712,0.408,18.66,108.0351,19.85,20.78,12.82,0,110.8,13.21,20.67,202.1
"2009-04-24 01:46:30",827097,8.28,233,2.411,0.321,18.55,108.0351,19.85,20.79,12.87,0,110.8,13.21,20.67,195.0
"2009-04-24 01:47:00",827098,8.45,235.3,1.66,0.135,18.36,108.0351,19.85,20.8,13.26,0,110.8,13.21,20.67,197.3
"2009-04-24 01:47:30",827099,8.51,236.1,2.701,0.199,18.45,108.0351,19.85,20.79,13.49,0,110.8,13.21,20.67,198.1
"2009-04-24 01:48:00",827100,8.17,235.7,2.954,0.287,18.5,108.0351,19.85,20.81,13.45,0,110.8,13.22,20.67,197.7